• In Germany
  • List of Countries
  • For 7 days
  • Water Temperature
  • Satellite Maps
  • Weather Map
  • Weather Widgets
  • user-avatar
    Login

    Hourly Weather Herāt

    Today, 18 November, Saturday

    Time Temperature Precipitation Wind Pressure Humidity
    00:00 +7°C° 0 mm 2 mps 682 mmHg 58%
    01:00 +7°C° 0 mm 2 mps 682 mmHg 59%
    02:00 +7°C° 0 mm 2 mps 682 mmHg 60%
    03:00 +6°C° 0 mm 2 mps 682 mmHg 61%
    04:00 +6°C° 0 mm 2 mps 682 mmHg 62%
    05:00 +6°C° 0 mm 2 mps 683 mmHg 62%
    06:00 +6°C° 0 mm 2 mps 683 mmHg 62%
    07:00 +6°C° 0 mm 2 mps 683 mmHg 62%
    08:00 +8°C° 0 mm 2 mps 684 mmHg 54%
    09:00 +10°C° 0 mm 2 mps 684 mmHg 47%
    10:00 +12°C° 0 mm 2 mps 685 mmHg 39%
    11:00 +12°C° 0 mm 3 mps 684 mmHg 36%
    12:00 +13°C° 0 mm 3 mps 684 mmHg 32%
    13:00 +14°C° 0 mm 3 mps 684 mmHg 29%
    14:00 +14°C° 0 mm 4 mps 684 mmHg 30%
    15:00 +14°C° 0 mm 4 mps 684 mmHg 30%
    16:00 +13°C° 0 mm 5 mps 684 mmHg 31%
    17:00 +12°C° 0 mm 5 mps 684 mmHg 36%
    18:00 +11°C° 0 mm 4 mps 684 mmHg 40%
    19:00 +10°C° 0 mm 4 mps 684 mmHg 45%
    20:00 +8°C° 0 mm 4 mps 684 mmHg 47%
    21:00 +8°C° 0 mm 3 mps 684 mmHg 49%
    22:00 +8°C° 0 mm 3 mps 684 mmHg 50%
    23:00 +8°C° 0 mm 3 mps 684 mmHg 50%

    Tomorrow, 19 November, Sunday

    Time Temperature Precipitation Wind Pressure Humidity
    00:00 +7°C° 0 mm 3 mps 684 mmHg 50%
    01:00 +7°C° 0 mm 2 mps 684 mmHg 50%
    02:00 +7°C° 0 mm 2 mps 684 mmHg 49%
    03:00 +6°C° 0 mm 2 mps 684 mmHg 49%
    04:00 +6°C° 0 mm 2 mps 683 mmHg 48%
    05:00 +6°C° 0 mm 2 mps 683 mmHg 47%
    06:00 +6°C° 0 mm 2 mps 684 mmHg 46%
    07:00 +6°C° 0 mm 2 mps 684 mmHg 46%
    08:00 +9°C° 0 mm 1 mps 684 mmHg 39%
    09:00 +11°C° 0 mm 1 mps 685 mmHg 33%
    10:00 +13°C° 0 mm 1 mps 685 mmHg 27%
    11:00 +14°C° 0 mm 1 mps 685 mmHg 24%
    12:00 +15°C° 0 mm 1 mps 684 mmHg 22%
    13:00 +16°C° 0 mm 2 mps 684 mmHg 19%
    14:00 +16°C° 0 mm 2 mps 684 mmHg 19%
    15:00 +16°C° 0 mm 2 mps 683 mmHg 20%
    16:00 +16°C° 0 mm 2 mps 683 mmHg 20%
    17:00 +14°C° 0 mm 2 mps 683 mmHg 23%
    18:00 +12°C° 0 mm 1 mps 683 mmHg 27%
    19:00 +11°C° 0 mm 1 mps 682 mmHg 31%
    20:00 +10°C° 0 mm 1 mps 682 mmHg 31%
    21:00 +10°C° 0 mm 1 mps 682 mmHg 32%
    22:00 +9°C° 0 mm 1 mps 682 mmHg 32%
    23:00 +8°C° 0 mm 0 mps 682 mmHg 32%

    Day after tomorrow, 20 November, Monday

    Time Temperature Precipitation Wind Pressure Humidity
    00:00 +7°C° 0 mm 0 mps 681 mmHg 32%
    01:00 +7°C° 0 mm 0 mps 681 mmHg 33%
    02:00 +8°C° 0 mm 1 mps 681 mmHg 32%
    03:00 +8°C° 0 mm 1 mps 681 mmHg 31%
    04:00 +7°C° 0 mm 1 mps 680 mmHg 31%
    05:00 +8°C° 0 mm 1 mps 681 mmHg 30%
    06:00 +8°C° 0 mm 1 mps 681 mmHg 28%
    07:00 +8°C° 0 mm 1 mps 681 mmHg 27%
    08:00 +10°C° 0 mm 2 mps 682 mmHg 23%
    09:00 +13°C° 0 mm 2 mps 682 mmHg 19%
    10:00 +16°C° 0 mm 2 mps 683 mmHg 15%
    11:00 +17°C° 0 mm 2 mps 682 mmHg 14%
    12:00 +17°C° 0 mm 3 mps 682 mmHg 12%
    13:00 +18°C° 0 mm 3 mps 682 mmHg 11%
    14:00 +18°C° 0 mm 3 mps 681 mmHg 11%
    15:00 +18°C° 0 mm 3 mps 681 mmHg 12%
    16:00 +17°C° 0 mm 2 mps 681 mmHg 12%
    17:00 +16°C° 0 mm 2 mps 681 mmHg 13%
    18:00 +15°C° 0 mm 2 mps 681 mmHg 15%
    19:00 +14°C° 0 mm 2 mps 681 mmHg 16%
    20:00 +13°C° 0 mm 2 mps 681 mmHg 17%
    21:00 +13°C° 0 mm 2 mps 681 mmHg 17%
    22:00 +12°C° 0 mm 2 mps 680 mmHg 18%
    23:00 +12°C° 0 mm 2 mps 680 mmHg 18%

    21 November, Tuesday

    Time Temperature Precipitation Wind Pressure Humidity
    00:00 +12°C° 0 mm 2 mps 680 mmHg 19%
    01:00 +10°C° 0 mm 2 mps 680 mmHg 19%
    02:00 +10°C° 0 mm 2 mps 679 mmHg 20%
    03:00 +10°C° 0 mm 2 mps 679 mmHg 20%
    04:00 +10°C° 0 mm 2 mps 679 mmHg 20%
    05:00 +10°C° 0 mm 2 mps 679 mmHg 20%
    06:00 +10°C° 0 mm 2 mps 679 mmHg 20%
    07:00 +10°C° 0 mm 2 mps 680 mmHg 20%
    08:00 +13°C° 0 mm 2 mps 680 mmHg 17%
    09:00 +14°C° 0 mm 3 mps 681 mmHg 14%
    10:00 +18°C° 0 mm 3 mps 681 mmHg 11%
    11:00 +18°C° 0 mm 3 mps 681 mmHg 11%
    12:00 +19°C° 0 mm 4 mps 680 mmHg 10%
    13:00 +20°C° 0 mm 4 mps 680 mmHg 10%
    14:00 +20°C° 0 mm 4 mps 679 mmHg 10%
    15:00 +19°C° 0 mm 3 mps 679 mmHg 11%
    16:00 +19°C° 0 mm 3 mps 679 mmHg 11%
    17:00 +17°C° 0 mm 3 mps 679 mmHg 13%
    18:00 +16°C° 0 mm 2 mps 679 mmHg 14%
    19:00 +14°C° 0 mm 2 mps 679 mmHg 15%
    20:00 +14°C° 0 mm 2 mps 679 mmHg 16%
    21:00 +14°C° 0 mm 2 mps 678 mmHg 17%
    22:00 +13°C° 0 mm 2 mps 678 mmHg 17%
    23:00 +13°C° 0 mm 2 mps 678 mmHg 18%

    22 November, Wednesday

    Time Temperature Precipitation Wind Pressure Humidity
    00:00 +12°C° 0 mm 3 mps 678 mmHg 18%
    01:00 +11°C° 0 mm 3 mps 677 mmHg 19%
    02:00 +11°C° 0 mm 3 mps 677 mmHg 19%
    03:00 +11°C° 0 mm 3 mps 677 mmHg 19%
    04:00 +11°C° 0 mm 3 mps 677 mmHg 19%
    05:00 +11°C° 0 mm 3 mps 677 mmHg 19%
    06:00 +11°C° 0 mm 3 mps 677 mmHg 19%
    07:00 +11°C° 0 mm 3 mps 678 mmHg 19%
    08:00 +13°C° 0 mm 4 mps 678 mmHg 16%
    09:00 +17°C° 0 mm 4 mps 679 mmHg 13%
    10:00 +19°C° 0 mm 5 mps 679 mmHg 10%
    11:00 +20°C° 0 mm 5 mps 679 mmHg 10%
    12:00 +21°C° 0 mm 6 mps 678 mmHg 9%
    13:00 +21°C° 0 mm 6 mps 678 mmHg 8%
    14:00 +21°C° 0 mm 6 mps 677 mmHg 9%
    15:00 +20°C° 0 mm 5 mps 677 mmHg 10%
    16:00 +20°C° 0 mm 5 mps 677 mmHg 10%
    17:00 +18°C° 0 mm 4 mps 677 mmHg 12%
    18:00 +17°C° 0 mm 4 mps 677 mmHg 13%
    19:00 +16°C° 0 mm 3 mps 677 mmHg 14%
    20:00 +16°C° 0 mm 3 mps 677 mmHg 14%
    21:00 +16°C° 0 mm 3 mps 677 mmHg 14%
    22:00 +16°C° 0 mm 3 mps 677 mmHg 14%
    23:00 +16°C° 0 mm 3 mps 677 mmHg 15%

    23 November, Thursday

    Time Temperature Precipitation Wind Pressure Humidity
    00:00 +14°C° 0 mm 3 mps 676 mmHg 15%
    01:00 +14°C° 0 mm 3 mps 676 mmHg 16%
    02:00 +13°C° 0 mm 3 mps 676 mmHg 16%
    03:00 +13°C° 0 mm 3 mps 676 mmHg 16%
    04:00 +13°C° 0 mm 3 mps 676 mmHg 17%
    05:00 +13°C° 0 mm 3 mps 676 mmHg 17%
    06:00 +13°C° 0 mm 3 mps 676 mmHg 17%
    07:00 +13°C° 0 mm 3 mps 677 mmHg 17%
    08:00 +15°C° 0 mm 4 mps 677 mmHg 16%
    09:00 +17°C° 0 mm 5 mps 678 mmHg 15%
    10:00 +19°C° 0 mm 5 mps 678 mmHg 14%
    11:00 +20°C° 0 mm 6 mps 678 mmHg 15%
    12:00 +20°C° 0 mm 6 mps 678 mmHg 16%
    13:00 +21°C° 0 mm 6 mps 677 mmHg 17%
    14:00 +21°C° 0 mm 6 mps 677 mmHg 16%
    15:00 +20°C° 0 mm 5 mps 677 mmHg 16%
    16:00 +20°C° 0 mm 5 mps 677 mmHg 16%
    17:00 +19°C° 0 mm 4 mps 677 mmHg 17%
    18:00 +18°C° 0 mm 4 mps 677 mmHg 18%
    19:00 +16°C° 0 mm 3 mps 677 mmHg 20%
    20:00 +16°C° 0 mm 3 mps 677 mmHg 21%
    21:00 +14°C° 0 mm 3 mps 678 mmHg 22%
    22:00 +14°C° 0 mm 3 mps 678 mmHg 23%
    23:00 +14°C° 0 mm 3 mps 678 mmHg 23%
    Show more